Flag for Ireland Weather past 2 weeks in Dundalk, Ireland

Now
44 °F

Quite cool.


Feels Like: 38 °F
Forecast: 28 / 47 °F
Wind: 10 mph from North

Location: Glenanne

Current Time: Apr 26, 2015 at 5:04:11 PM

Latest Report: Apr 26, 2015 at 4:00 PM


Visibility: 10 mi

Pressure: 29.88 "Hg

Humidity: 82%

Dew point: 38 °F

Location of DundalkLocation

Historic Weather in Dundalk — Graph

°F

Dundalk temperature yesterday

Maximum temperature yesterday: 50 °F (at 2:00 AM)
Minimum temperature yesterday: 36 °F (at 11:00 PM)
Average temperature yesterday: 44 °F

Past Weeks' High & Low Weather Summary

 TemperatureHumidityPressure
High64 °F (Apr 23, 3:00 PM)100% (Apr 12, 6:00 AM)30.63 "Hg (Apr 12, 6:00 AM)
Low33 °F (Apr 26, 6:00 AM)45% (Apr 21, 4:00 PM)29.47 "Hg (Apr 25, 3:00 AM)
Average47 °F81%30.16 "Hg
* Reported Apr 11 3:00 PM — Apr 26 3:00 PM, Dundalk, Weather by CustomWeather, © 2015

Note: Actual official high and low records may vary slightly from our data, if they occured in-between our weather recording intervals... More about our weather records

Advertising

Dundalk weather history for previous 24 hours

 ConditionsComfort  
Time TempWeatherWind HumidityBarometerVisibility
3:00 PM
Sun, Apr 26
47 °FCool.13 mph61%29.86 "Hg18 mi
2:00 PM46 °FCool.14 mph59%29.87 "Hg15 mi
1:00 PM45 °FRain showers. Cloudy.12 mph69%29.88 "Hg19 mi
12:00 PM46 °FCool.13 mph56%29.88 "Hg22 mi
11:00 AM45 °FQuite cool.10 mph59%29.88 "Hg25 mi
10:00 AM43 °FQuite cool.9 mph69%29.89 "Hg22 mi
9:00 AM41 °FQuite cool.10 mph74%29.88 "Hg19 mi
8:00 AM38 °FChilly.10 mph83%29.88 "Hg28 mi
7:00 AM35 °FChilly.10 mph86%29.88 "Hg22 mi
6:00 AM33 °FChilly.9 mph88%29.87 "Hg15 mi
5:00 AM34 °FChilly.10 mph85%29.87 "Hg19 mi
3:00 AM36 °FChilly.10 mph80%29.87 "Hg15 mi
2:00 AM36 °FChilly.9 mph83%29.87 "Hg16 mi
1:00 AM35 °FChilly.8 mph84%29.87 "Hg15 mi
12:00 AM35 °FChilly.8 mph81%29.86 "Hg15 mi
11:00 PM
Sat, Apr 25
36 °FChilly.8 mph79%29.85 "Hg15 mi
9:00 PM39 °FChilly.9 mph72%29.82 "Hg19 mi
8:00 PM43 °FQuite cool.9 mph67%29.80 "Hg22 mi
7:00 PM46 °FCool.12 mph62%29.77 "Hg19 mi
6:00 PM46 °FCool.13 mph63%29.75 "Hg28 mi
5:00 PM46 °FCool.13 mph59%29.73 "Hg28 mi
Weather by CustomWeather, © 2015

See weather overviewHow to use our weather pages